Flag for Zimbabwe Weather past 2 weeks in Harare, Zimbabwe

Now
64 °F

Passing clouds.


Feels Like: 64 °F
Forecast: 57 / 84 °F
Wind: 8 mph from East

Location: Harare Kutsaga Airport

Current Time: Feb 27, 2015 at 2:39:51 AM

Latest Report: Feb 27, 2015 at 1:00 AM


Visibility: N/A

Pressure: 30.09 "Hg

Humidity: 100%

Dew point: 64 °F

Location of HarareLocation

Historic Weather in Harare — Graph

°F

Harare temperature yesterday

Maximum temperature yesterday: 82 °F (at 4:00 PM)
Minimum temperature yesterday: 63 °F (at 3:00 AM)
Average temperature yesterday: 71 °F

Past Weeks' High & Low Weather Summary

 TemperatureHumidityPressure
High84 °F (Feb 13, 3:00 PM)100% (Feb 12, 1:00 AM)30.27 "Hg (Feb 12, 1:00 AM)
Low55 °F (Feb 18, 4:00 AM)31% (Feb 20, 12:00 PM)29.98 "Hg (Feb 13, 4:00 PM)
Average70 °F77%30.12 "Hg
* Reported Feb 12 1:00 AM — Feb 27 1:00 AM, Harare, Weather by CustomWeather, © 2015

Note: Actual official high and low records may vary slightly from our data, if they occured in-between our weather recording intervals... More about our weather records

Advertising

Harare weather history for previous 24 hours

 ConditionsComfort  
Time TempWeatherWind HumidityBarometerVisibility
1:00 AM
Fri, Feb 27
64 °FPassing clouds.8 mph100%30.09 "HgN/A
11:00 PM
Thu, Feb 26
68 °FPassing clouds.7 mph78%30.09 "HgN/A
10:00 PM70 °FPassing clouds.3 mph78%30.09 "HgN/A
9:00 PM70 °FPassing clouds.6 mph78%30.07 "HgN/A
5:00 PM79 °FBroken clouds.10 mph58%30.01 "HgN/A
4:00 PM82 °FBroken clouds.3 mph42%30.01 "HgN/A
3:00 PM81 °FBroken clouds.5 mph48%30.01 "HgN/A
2:00 PM79 °FBroken clouds.6 mph54%30.04 "HgN/A
1:00 PM79 °FBroken clouds.7 mph54%30.07 "HgN/A
12:00 PM75 °FBroken clouds.7 mph65%30.09 "HgN/A
11:00 AM75 °FBroken clouds.5 mph61%30.12 "HgN/A
9:00 AM70 °FPartly sunny.6 mph83%30.12 "HgN/A
8:00 AM66 °FPartly sunny.5 mph100%30.12 "HgN/A
7:00 AM64 °FPartly sunny.5 mph100%30.09 "HgN/A
6:00 AM63 °FPartly sunny.3 mph100%30.09 "HgN/A
5:00 AM63 °FClear.2 mph100%30.07 "Hg10 mi
4:00 AM64 °FClear.No wind100%30.07 "Hg10 mi
3:00 AM63 °FPassing clouds.No wind100%30.07 "HgN/A
Weather by CustomWeather, © 2015

See weather overviewHow to use our weather pages